Location: Orange
(33.2833°S, 149.1000°E)
Time: 22:13:24
(UTC+10:00)

N. Korean satellite - Visible Passes

Search period start: 29 September 2022 00:00
Search period end: 09 October 2022 01:00
Orbit: 427 x 468 km, 97.3° (Epoch: 28 September)

Date Brightness Start Highest point End Pass type
(mag) Time Alt. Az. Time Alt. Az. Time Alt. Az.
29 Sep 9.1 03:57:01 10° ENE 03:59:35 21° ESE 04:02:13 10° SSE visible
30 Sep 6.6 04:53:09 10° N 04:56:23 49° W 04:59:44 10° SSW visible
01 Oct 7.7 04:17:31 10° NNE 04:20:42 42° ESE 04:23:58 10° S visible
02 Oct 9.8 04:43:26 10° E 04:45:11 14° ESE 04:46:57 10° SE visible
02 Oct 7.5 06:14:52 10° NNW 06:17:37 23° W 06:20:26 10° SW visible
03 Oct 6.3 05:38:23 10° N 05:41:45 87° WNW 05:45:12 10° SSW visible
04 Oct 8.8 05:03:12 10° NE 05:06:03 26° ESE 05:08:57 10° SSE visible
05 Oct 6.9 05:59:33 10° N 06:02:43 39° W 06:05:59 10° SSW visible
06 Oct 7.3 05:23:32 10° NNE 05:26:50 53° ESE 05:30:13 10° S visible
07 Oct 9.6 04:48:54 10° ENE 04:51:07 16° ESE 04:53:21 10° SSE visible
08 Oct 6.3 05:44:10 10° N 05:47:32 70° W 05:51:02 10° SSW visible
